Powrót do katalogu

HULIANWANG DIGUI-126

AktywnyŁącznośćLEO
NORAD 67066·PAYLOAD·🇨🇳 China

Wystrzelony Dec 11, 2025 z Wenchang Space Launch Site

Loading…

Następne Przeloty (najbliższe 24 godziny)

TLE

ŚwieżeSource: Space-Track

Epoka: Sep 14, 2026, 11:40 UTC

1 67066U 25295H   26257.48645583 -.00000115  00000-0  19442-4 0  9995
2 67066  49.9991  64.8827 0000743  57.8774 302.2170 13.29326409 37380

Śledź HULIANWANG DIGUI-126 w czasie rzeczywistym z AllMySat

Download on the App Store